Weather in Montevideo

Uruguay     34°51′33″S   56°11′52″W
temp.,
°C
wind,
m/s
gust,
m/s
humid.,
%
clouds,
%
prec.,
mm/h
press.,
hPa
HPBL,
m
18 january, mon
mon1800:00+20ssw48638 0.1 1011918
03:00+19ssw47634 0.1 1011741
06:00+18ssw36640 0.0 1012578
09:00+22sw45500 0.0 1014910
12:00+24sw45400 0.0 1015996
15:00+27ssw44270 0.0 10151083
18:00+26sse33240 0.0 1014924
21:00+22ene35410 0.0 1015188
19 january, tue
tue1900:00+20ne59420 0.0 1016228
03:00+17nne511660 0.0 1015284
06:00+16n49710 0.0 1016254
09:00+22nnw46570 0.0 1018385
12:00+30nw33290 0.0 1018976
15:00+33sw11240 0.0 10171700
18:00+32se33270 0.0 10151008
21:00+26e48400 0.0 1017232
20 january, wed
wed2000:00+23ne5115554 0.0 1018339
03:00+20nne496471 0.0 1018294
06:00+18nne376751 0.0 1018220
09:00+24nne354626 0.0 1020421
12:00+31ne23240 0.0 10201175
15:00+31ese77300 0.0 10181051
18:00+28ese610350 0.0 1018672
21:00+26e511410 0.0 1019561
21 january, thu
thu2100:00+22ne511590 0.0 1020456
03:00+20ne410720 0.0 1019396
06:00+18ne38790 0.0 1020287
09:00+24ne36550 0.0 1022553
12:00+31ene46290 0.0 10211272
15:00+31ese78370 0.0 1019908
18:00+33e69290 0.0 10191578
21:00+27ene611360 0.0 1019726
22 january, fri
fri2200:00+22ne613640 0.0 1020618
03:00+19ne511790 0.0 1020600
06:00+18ne411820 0.0 1020516
09:00+23ne610610 0.0 1021803
12:00+30ne68330 0.0 10191507
15:00+33ne68280 0.0 10162032
18:00+32ne79360 0.0 10142053
21:00+27ne712600 0.0 1014964